K5KVN-2 Weather Reports


Display with metric or nautical units.
time (UTC)temp
F
wind
direction
speed
MPH
gust
MPH
rain 1hr
in
rain 24hr
in
rain mn
in
humidity
%
barometer
mb
20260510220400 67 323 7.0 12.0 0.00 0.00 0.00 67 1018.8
20260510215359 67 355 8.0 13.0 0.00 0.00 0.00 66 1018.8
20260510214401 68 324 6.0 12.0 0.00 0.00 0.00 66 1018.6
20260510213400 69 0 4.0 9.0 0.00 0.00 0.00 67 1018.6
20260510212353 69 342 2.0 5.0 0.00 0.00 0.00 71 1018.7
20260510211835 69 28 2.0 9.0 0.00 0.00 0.00 70 1018.6
20260510210353 69 355 3.0 9.0 0.00 0.00 0.00 70 1018.3
20260510205353 69 32 3.0 10.0 0.00 0.00 0.00 70 1018.6
20260510204833 69 113 4.0 12.0 0.00 0.00 0.00 71 1018.8
20260510203353 69 0 7.0 13.0 0.00 0.00 0.00 71 1019.0
20260510201354 71 341 5.0 14.0 0.00 0.00 0.00 72 1018.3
20260510200354 72 355 7.0 14.0 0.00 0.00 0.00 67 1018.3
20260510194349 71 342 6.0 12.0 0.00 0.00 0.00 73 1018.6
20260510193349 71 340 5.0 10.0 0.00 0.00 0.00 74 1018.7
20260510192348 71 355 5.0 9.0 0.00 0.00 0.00 73 1018.7
20260510191826 71 344 4.0 8.0 0.00 0.00 0.00 73 1018.6
20260510190347 72 328 4.0 8.0 0.00 0.00 0.00 71 1018.6
20260510185349 72 340 3.0 8.0 0.00 0.00 0.00 71 1018.7
20260510184347 71 5 4.0 8.0 0.00 0.00 0.00 69 1018.8
20260510183348 71 319 6.0 11.0 0.00 0.00 0.00 70 1019.0
20260510182342 72 343 5.0 10.0 0.00 0.00 0.00 69 1018.8
20260510181344 71 321 6.0 10.0 0.00 0.00 0.00 72 1018.8
20260510180341 72 327 5.0 10.0 0.00 0.00 0.00 72 1018.8
20260510175341 72 348 4.0 9.0 0.00 0.00 0.00 71 1018.8
20260510174342 72 26 5.0 9.0 0.00 0.00 0.00 69 1018.6
20260510173341 72 337 3.0 8.0 0.00 0.00 0.00 70 1018.3
20260510172347 72 311 3.0 5.0 0.00 0.00 0.00 70 1018.4
20260510171824 72 284 3.0 6.0 0.00 0.00 0.00 70 1018.4
20260510165340 72 312 3.0 6.0 0.00 0.00 0.00 68 1018.2
20260510164339 72 338 2.0 6.0 0.00 0.00 0.00 71 1018.0
20260510163340 71 338 1.0 5.0 0.00 0.00 0.00 71 1018.0
20260510162339 71 308 2.0 6.0 0.00 0.00 0.00 73 1017.7
20260510161340 70 57 1.0 6.0 0.00 0.00 0.00 75 1017.4
20260510160339 70 55 2.0 6.0 0.00 0.00 0.00 75 1017.1
20260510154337 70 25 1.0 6.0 0.00 0.00 0.00 76 1016.9
20260510153337 69 28 3.0 9.0 0.00 0.00 0.00 77 1017.0
20260510152337 69 355 3.0 8.0 0.00 0.00 0.00 78 1016.8
20260510151338 69 5 2.0 5.0 0.00 0.00 0.00 78 1016.9
20260510150338 68 49 1.0 4.0 0.00 0.00 0.00 80 1016.8
20260510145337 68 16 1.0 4.0 0.00 0.00 0.00 80 1016.8
20260510144337 68 18 2.0 6.0 0.00 0.00 0.00 80 1016.9
20260510143336 67 61 0.0 1.0 0.00 0.00 0.00 80 1016.8
20260510142816 67 36 0.0 3.0 0.00 0.00 0.00 81 1017.0
20260510141335 67 41 1.0 4.0 0.00 0.00 0.00 80 1017.0
20260510140336 67 19 3.0 6.0 0.00 0.00 0.00 82 1017.1
20260510134814 65 335 3.0 5.0 0.00 0.00 0.00 86 1017.2
20260510133809 64 346 0.0 2.0 0.00 0.00 0.00 88 1017.2
20260510132332 63 355 0.0 0.0 0.00 0.00 0.00 88 1016.9
20260510131330 63 355 0.0 0.0 0.00 0.00 0.00 88 1016.7
20260510130332 62 355 0.0 0.0 0.00 0.00 0.00 88 1016.3
20260510125332 62 355 0.0 0.0 0.00 0.00 0.00 88 1016.1
20260510124331 61 355 0.0 0.0 0.00 0.00 0.00 89 1016.1
20260510123330 61 355 0.0 1.0 0.00 0.00 0.00 89 1016.0
20260510122330 60 334 0.0 2.0 0.00 0.00 0.00 89 1015.7
20260510121818 60 334 0.0 3.0 0.00 0.00 0.00 87 1015.4
20260510120330 61 126 0.0 2.0 0.00 0.00 0.00 86 1015.0
20260510115329 62 123 1.0 4.0 0.00 0.00 0.00 85 1014.8
20260510114330 61 38 0.0 3.0 0.00 0.00 0.00 87 1014.8
20260510113329 60 26 2.0 3.0 0.00 0.00 0.00 88 1014.8
20260510112330 60 5 0.0 2.0 0.00 0.00 0.00 88 1014.7
20260510111331 60 355 1.0 3.0 0.00 0.00 0.00 87 1014.5
20260510110328 61 355 0.0 2.0 0.00 0.00 0.00 85 1014.5
20260510105810 61 284 2.0 4.0 0.00 0.00 0.00 84 1014.4
20260510104329 62 344 2.0 4.0 0.00 0.00 0.00 82 1014.4
20260510103328 64 170 3.0 6.0 0.00 0.00 0.00 81 1014.3
20260510102328 63 198 5.0 10.0 0.00 0.00 0.00 82 1014.3
20260510101326 63 222 4.0 7.0 0.00 0.00 0.00 82 1014.3
20260510100326 62 200 2.0 8.0 0.00 0.00 0.00 85 1014.3
20260510095758 62 183 1.0 3.0 0.00 0.00 0.00 86 1014.2
20260510094327 62 326 0.0 0.0 0.00 0.00 0.00 86 1014.1
20260510093325 61 296 0.0 0.0 0.00 0.00 0.00 85 1014.0
20260510092324 61 306 0.0 0.0 0.00 0.00 0.00 86 1013.6
20260510091325 61 27 0.0 0.0 0.00 0.00 0.00 85 1012.9
20260510090320 62 142 0.0 0.0 0.00 0.00 0.00 83 1012.9
20260510085813 61 143 0.0 0.0 0.00 0.00 0.00 84 1013.4
20260510084322 60 164 0.0 0.0 0.00 0.00 0.00 84 1013.5
20260510083809 61 171 0.0 0.0 0.00 0.00 0.00 82 1013.3
20260510082320 62 178 0.0 0.0 0.00 0.00 0.00 78 1013.5
20260510081322 62 126 0.0 0.0 0.00 0.00 0.00 79 1013.4
20260510080321 61 126 0.0 0.0 0.00 0.00 0.00 80 1013.6
20260510075809 60 126 0.0 0.0 0.00 0.00 0.00 82 1013.5
20260510074322 60 355 0.0 0.0 0.00 0.00 0.00 81 1013.5
20260510073320 60 355 0.0 0.0 0.00 0.00 0.00 81 1013.5
20260510072318 60 355 0.0 0.0 0.00 0.00 0.00 81 1013.2
20260510071320 60 355 0.0 0.0 0.00 0.00 0.00 82 1013.4
20260510070319 60 355 0.0 0.0 0.00 0.00 0.00 82 1013.7
20260510064319 60 355 0.0 0.0 0.00 0.00 0.00 82 1014.0
20260510063318 60 355 0.0 0.0 0.00 0.00 0.00 82 1014.2
20260510062320 60 355 0.0 0.0 0.00 0.00 0.00 80 1014.3
20260510061316 61 355 0.0 0.0 0.00 0.00 0.00 79 1014.4
20260510060316 62 355 0.0 0.0 0.00 0.00 0.00 77 1014.5
20260510055809 62 355 0.0 0.0 0.00 0.00 0.00 77 1014.2
20260510054318 62 355 0.0 0.0 0.00 0.00 0.00 76 1014.0
20260510053318 62 355 0.0 0.0 0.00 0.00 0.00 76 1014.1
20260510052318 61 355 0.0 0.0 0.00 0.00 0.00 76 1013.9
20260510051752 61 355 0.0 0.0 0.00 0.00 0.00 76 1013.7
20260510050315 60 355 0.0 0.0 0.00 0.00 0.00 77 1013.7
20260510045309 59 355 0.0 0.0 0.00 0.00 0.00 79 1013.8
20260510044309 59 251 0.0 0.0 0.00 0.00 0.00 80 1013.4
20260510043309 59 234 0.0 0.0 0.00 0.00 0.00 78 1013.4
20260510042308 59 217 0.0 0.0 0.00 0.00 0.00 79 1013.3
20260510041308 60 217 0.0 0.0 0.00 0.00 0.00 76 1013.3
20260510040308 61 159 0.0 0.0 0.00 0.00 0.00 75 1013.3
20260510035308 61 55 0.0 0.0 0.00 0.00 0.00 73 1013.2
20260510034309 62 55 0.0 0.0 0.00 0.00 0.00 72 1012.9
20260510033307 62 55 0.0 0.0 0.00 0.00 0.00 71 1012.8
20260510032307 62 55 0.0 0.0 0.00 0.00 0.00 69 1012.5
20260510031307 63 196 0.0 0.0 0.00 0.00 0.00 67 1012.3
20260510030304 64 196 0.0 0.0 0.00 0.00 0.00 66 1012.3
20260510025306 64 196 0.0 0.0 0.00 0.00 0.00 63 1012.2
20260510024302 65 289 0.0 0.0 0.00 0.00 0.00 64 1012.1
20260510023302 66 217 0.0 0.0 0.00 0.00 0.00 63 1012.1
20260510022744 66 267 0.0 0.0 0.00 0.00 0.00 58 1011.8
20260510021305 67 245 0.0 0.0 0.00 0.00 0.00 58 1011.6
20260510020303 66 245 0.0 0.0 0.00 0.00 0.00 58 1011.3
20260510015306 66 197 0.0 0.0 0.00 0.00 0.00 61 1011.2
20260510014302 67 190 0.0 0.0 0.00 0.02 0.00 63 1011.0
20260510013303 70 34 0.0 0.0 0.00 0.05 0.00 54 1010.8
20260510012300 71 34 0.0 0.0 0.00 0.07 0.00 51 1010.7
20260510011258 72 34 0.0 0.0 0.00 0.08 0.00 45 1010.6
20260510010259 73 34 0.0 0.0 0.00 0.09 0.00 41 1010.6
20260510005258 74 34 0.0 0.0 0.00 0.09 0.00 40 1010.4
20260510004259 75 34 0.0 0.0 0.00 0.10 0.00 39 1010.1
20260510003259 76 34 0.0 1.0 0.00 0.10 0.00 39 1010.1
20260510002732 77 31 0.0 1.0 0.00 0.10 0.00 37 1010.1
20260510001259 77 50 0.0 0.0 0.00 0.10 0.00 35 1010.0
20260510000259 78 41 0.0 3.0 0.00 0.10 0.00 34 1010.0
20260509235257 78 39 0.0 2.0 0.00 0.10 0.00 35 1010.4
20260509234755 78 34 0.0 1.0 0.00 0.10 0.00 34 1010.4
20260509232254 78 79 0.0 2.0 0.00 0.10 0.00 34 1010.6
20260509231728 78 101 0.0 4.0 0.00 0.10 0.00 34 1010.7
20260509230253 78 49 0.0 2.0 0.00 0.10 0.00 34 1010.6
20260509225725 78 120 0.0 0.0 0.00 0.10 0.00 33 1010.6
20260509224251 79 186 1.0 3.0 0.00 0.10 0.00 33 1010.7
20260509223253 79 113 1.0 4.0 0.00 0.10 0.00 32 1010.9
20260509222251 79 108 1.0 4.0 0.00 0.10 0.00 33 1010.9
20260509221249 79 96 0.0 3.0 0.00 0.10 0.00 34 1010.8